Delta Virtual Airport Information Service

Minneapolis Saint Paul International Airport

ICAO: KMSP Country: United States
Latitude: 44.882 Longitude: -93.2217
Latest Arrival : DAL1326 (B) (KPDX-KMSP) Latest Departure : DAL3066 (1A) (KMSP-KTPA)


WX CaptureLIVE
Data provided by noaa.gov | Fetched at 13:36:20

METAR : KMSP 281753Z 34007KT 10SM SCT009 OVC023 09/07 A2978 RMK AO2 SLP086 60004 T00890067 10089 20078 50004

TAF : KMSP 281732Z 2818/2924 02005KT P6SM SCT009 OVC020 FM282000 34008KT 5SM -RA BR SCT008 OVC015 FM290000 34012KT 6SM -DZ SCT008 OVC015 FM290300 35012KT P6SM BKN017 FM291900 36007KT P6SM SCT025


Runway Data for KMSP
Data provided by openaviationdata.com

Runway ID Mag Var Hdg Length Elevation Surface ILS Freq ILS Id ILS Slope
4 2 42° 10999 ft 841 ft Concrete 109.3 IAPL 3
12L 2 119° 8190 ft 841 ft Asphalt 110.7 IPJL 3
12R 2 119° 9988 ft 841 ft Asphalt 110.3 IHKZ 3
22 2 222° 10999 ft 841 ft Concrete 110.5 ISIJ 0
30L 2 299° 9988 ft 841 ft Asphalt 110.3 IMSP 3
30R 2 299° 8190 ft 841 ft Asphalt 110.7 IINN 3

Minneapolis Saint Paul International Airport, United States
Use only for reference purposes



Not for navigational purposes.